Dewpoint
13 14 14 13 12 10 10 11 11 11 11 11 10 10 10 10 10 6 3 1 -2 -6 -16 -23 -20 -18 -17 -15 -13 -9 -6 -3 -1 -0 -2 2 7 9 8 9 9 8 6
13 14 14 13 12 12 12 12 12 12 11 11 10 8 5 3 2 -0 -3 -2 -8 -15 -15 -14 -12 -11 -11 -11 -12 -12 -8 -3 1 4 3 2 4 7 8 9 8 8 7
13 13 14 13 12 12 13 13 12 12 11 10 6 1 -0 -1 -5 -5 -3 -7 -13 -14 -14 -14 -15 -14 -12 -12 -12 -12 -10 -8 -2 3 5 6 6 7 8 8 8 7 7
12 13 14 13 13 14 14 13 12 12 10 6 2 -1 -2 -6 -5 -4 -7 -11 -13 -13 -14 -15 -15 -13 -10 -9 -10 -11 -12 -12 -10 -6 3 7 8 8 8 8 7 8 7
12 13 14 14 14 14 13 13 12 11 7 3 -1 -5 -4 -9 -6 -6 -10 -12 -13 -14 -13 -11 -10 -8 -7 -7 -6 -6 -6 -6 -7 -9 -7 2 7 9 9 9 8 7 7
13 13 14 14 14 13 13 12 10 7 5 1 -5 -4 -5 -11 -7 -10 -14 -13 -7 -5 -7 -7 -8 -7 -5 -5 -6 -7 -7 -8 -7 -6 -5 -6 -1 7 8 7 7 8 7
12 13 13 13 13 13 12 9 7 6 3 -3 -6 -4 -12 -12 -11 -7 -4 -4 -5 -8 -8 -8 -9 -9 -8 -7 -6 -6 -6 -6 -6 -4 -2 -1 1 2 1 4 5 8 8
12 13 13 13 12 11 9 8 6 4 -1 -9 -5 -8 -9 -8 -4 -3 -3 -4 -6 -5 -5 -5 -5 -5 -5 -5 -5 -4 -4 -4 -5 -6 -6 -5 -3 -1 1 2 6 6 6
12 13 13 12 10 9 9 4 2 -2 -6 -7 -8 -4 -4 -3 -3 -3 -3 -4 -4 -3 -3 -2 -2 -2 -2 -2 -2 -3 -4 -5 -5 -4 -4 -5 -6 -5 -3 -1 6 7 5
12 12 11 10 10 11 6 4 -3 -5 -9 -6 -5 -2 -2 -3 -3 -3 -3 -3 -3 -2 -1 0 1 1 1 0 -1 -1 -1 -1 -2 -4 -4 -3 -1 -2 -4 -3 1 3 1
13 10 6 8 6 2 1 -3 -7 -9 -8 -7 -2 -1 -1 -1 -2 -2 -2 -2 -2 -2 -1 -0 1 2 1 0 -1 -2 -1 -0 -0 -0 -2 -1 -1 0 0 0 -0 -3 -4
7 2 2 3 3 -0 -1 -7 -10 -11 -7 -1 1 1 0 0 -1 -0 -1 -1 -1 -1 -1 -1 -0 0 -0 -1 -3 -3 -2 -2 -2 -2 1 -1 1 1 1 1 -0 -0 -2
-1 -3 -3 -8 -7 -4 -5 -6 -5 -4 2 3 3 3 3 3 2 1 0 0 0 -0 -2 -2 -3 -3 -3 -2 -3 -3 -3 -3 -4 -0 1 2 1 2 2 -0 -3 -2 -1
-5 -1 -0 -2 -6 -7 -2 2 4 5 6 7 4 5 6 4 2 2 2 2 1 -0 -1 -1 -2 -2 -2 -2 -3 -2 -3 -4 -2 1 1 2 3 2 2 -1 -4 -4 -1
0 2 0 3 4 5 7 7 8 8 9 9 9 7 6 6 5 4 4 3 3 2 1 0 -1 -1 -3 -4 -3 -2 -2 -0 1 1 0 -0 -0 -1 -1 -1 -2 -4 -6
3 6 3 3 6 7 8 8 8 6 7 8 8 9 8 7 5 5 5 4 4 4 2 0 -1 -5 -7 -5 -3 -3 -2 -1 -2 -2 -2 -3 -3 -4 -4 -4 -3 -2 -1
4 6 6 2 6 7 8 7 5 4 4 6 6 8 7 6 5 5 5 5 5 1 -2 -3 -6 -7 -6 -5 -4 -3 -4 -4 -5 -6 -7 -7 -8 -9 -10 -11 -9 -5 -0
5 6 7 7 4 6 6 5 5 2 4 7 8 7 6 5 5 4 2 -2 -2 -3 -5 -5 -5 -4 -4 -4 -4 -4 -5 -5 -6 -6 -7 -8 -7 -6 -6 -9 -9 -9 -5
5 7 8 8 6 5 6 5 6 6 6 3 2 1 -1 -2 -2 -3 -3 -3 -5 -5 -3 -3 -3 -3 -4 -4 -5 -5 -6 -7 -7 -7 -6 -6 -6 -6 -6 -7 -7 -2 -2
3 5 8 9 8 6 7 7 7 4 3 3 -0 -4 -4 -3 -3 -3 -3 -4 -4 -4 -3 -3 -4 -6 -7 -9 -8 -7 -5 -5 -7 -6 -6 -6 -7 -7 -6 -5 -5 -4 -3
5 6 6 7 8 6 5 5 4 3 3 1 -4 -5 -4 -3 -3 -2 -3 -3 -3 -3 -3 -3 -4 -4 -6 -7 -9 -7 -9 -11 -7 -6 -10 -7 -7 -9 -9 -7 -6 -5 -5
8 8 7 5 3 3 3 3 3 -0 -5 -3 -3 -3 -2 -3 -2 -2 -3 -3 -3 -2 -2 -3 -4 -7 -8 -11 -12 -7 -9 -9 -5 -10 -4 -5 -9 -11 -7 -7 -7 -9 -11
3 3 2 0 2 1 -2 -2 -1 -1 -2 -2 -2 -2 -2 -2 -3 -3 -2 -3 -5 -7 -7 -7 -7 -8 -6 -8 -11 -7 -7 -7 -4 -6 -5 -4 -4 -6 -6 -8 -11 -15 -14
-2 -2 -2 -1 -1 -1 -1 -0 -0 -0 -1 -1 -2 -3 -3 -3 -3 -3 -3 -6 -10 -6 -6 -5 -6 -8 -10 -6 -8 -5 -9 -5 -8 -9 -9 -8 -7 -8 -7 -5 -10 -16 -11
-1 -1 -0 0 -0 -0 -0 -0 -0 -1 -1 -2 -3 -3 -3 -3 -3 -4 -6 -9 -10 -5 -4 -4 -8 -11 -12 -14 -17 -13 -9 -9 -9 -9 -12 -12 -11 -11 -9 -9 -7 -9 -11
0 0 0 0 1 0 0 0 -0 -1 -2 -3 -4 -6 -7 -7 -9 -12 -13 -10 -7 -5 -3 -5 -7 -4 -7 -10 -15 -12 -12 -12 -12 -9 -10 -11 -12 -13 -12 -10 -9 -11 -18
Wind_Speed
22 24 23 21 21 20 18 16 13 12 12 12 12 11 9 8 6 6 5 4 4 6 8 9 10 11 10 9 8 6 6 6 7 8 6 4 5 7 10 11 11 12 13
22 24 22 21 21 20 18 15 13 12 12 12 11 10 9 8 7 7 6 7 8 10 10 10 11 11 11 11 10 9 8 7 7 8 7 5 4 6 7 9 9 12 13
22 23 21 21 21 20 17 15 14 12 11 11 11 10 10 9 8 9 10 10 10 10 9 9 10 10 11 11 11 11 12 11 9 7 7 7 5 6 7 6 9 10 11
22 23 23 20 20 18 16 14 12 10 11 11 10 10 10 9 9 11 11 10 9 8 8 8 9 9 10 11 11 12 12 13 13 11 8 7 6 6 6 7 5 10 11
23 23 22 21 18 17 14 12 10 10 11 10 10 9 9 9 10 11 11 9 8 7 7 8 9 10 11 12 13 13 12 13 14 12 10 8 7 5 6 8 9 11 8
21 22 20 19 18 15 13 11 10 11 11 10 9 10 9 10 11 11 10 8 9 10 11 13 14 14 14 15 16 17 14 14 14 13 12 10 8 8 8 9 9 9 6
20 20 20 18 15 14 12 10 11 11 11 10 9 9 9 10 11 10 10 10 11 14 15 16 16 17 17 17 19 19 18 17 16 14 12 10 10 8 9 9 8 6 4
21 20 18 15 14 12 12 11 11 11 11 9 11 9 10 11 11 11 11 11 12 14 15 16 16 16 16 17 17 18 18 18 18 16 13 12 12 11 9 9 9 6 5
18 18 17 14 13 12 11 11 10 11 10 11 11 10 11 11 11 11 11 11 11 12 12 14 14 14 15 15 17 18 18 18 18 17 16 14 12 12 11 9 8 9 9
16 16 16 14 12 11 10 10 9 10 11 11 11 10 11 11 11 10 9 9 9 9 9 10 10 11 14 18 23 25 23 20 18 15 14 13 13 12 10 10 8 9 11
16 14 12 11 10 10 10 8 8 10 10 10 10 10 9 9 8 8 6 7 6 6 8 9 10 9 13 16 20 22 21 20 18 14 12 11 10 10 10 11 11 9 10
16 14 12 11 10 9 8 8 8 10 10 10 9 9 8 6 6 5 4 4 4 6 9 11 11 11 13 16 22 24 22 22 22 18 12 11 10 9 10 11 12 13 12
15 13 10 9 8 8 6 6 7 8 8 6 8 7 5 4 3 3 2 2 4 5 7 9 10 11 15 19 21 22 24 23 22 18 16 15 15 14 13 13 14 14 14
14 12 11 10 9 8 8 7 6 7 7 5 4 5 4 3 3 2 2 4 5 6 9 10 11 14 19 21 22 21 21 22 20 19 18 18 17 17 17 16 16 16 18
13 13 12 13 12 11 8 6 5 3 4 3 3 5 5 5 4 5 6 7 9 11 13 15 17 21 23 22 21 19 20 18 18 18 20 21 20 19 20 20 20 19 20
13 14 13 12 11 10 6 2 2 4 9 9 11 11 10 11 10 8 9 10 12 15 18 19 22 25 24 21 19 18 17 16 18 20 23 25 24 22 20 22 22 22 21
15 14 13 13 12 9 5 6 8 15 14 13 14 16 14 16 12 10 13 16 17 18 20 24 25 25 24 22 20 20 18 20 21 23 23 23 25 27 27 26 25 24 23
15 16 15 14 14 10 4 13 18 15 17 20 21 14 7 6 10 10 14 15 18 21 22 24 23 21 20 20 21 21 22 25 27 29 29 29 30 31 32 30 27 26 26
16 17 18 19 15 12 12 18 17 15 8 7 7 2 3 5 10 14 18 19 18 22 25 22 21 21 21 21 22 23 23 26 29 31 32 31 30 29 27 26 27 25 24
17 17 15 12 9 13 10 8 7 2 2 6 7 6 10 13 14 19 18 17 20 19 18 19 20 22 23 24 25 26 30 33 32 27 28 30 30 27 23 23 25 28 29
9 9 7 7 8 3 4 4 4 5 8 11 8 11 13 16 18 21 18 18 18 17 18 18 21 24 27 28 27 21 23 24 21 22 26 21 20 23 25 25 26 29 31
14 11 12 13 10 8 7 3 6 5 2 6 11 14 16 17 19 19 18 17 18 22 25 28 28 26 23 25 22 16 17 16 15 19 16 18 23 26 24 25 29 32 34
23 20 17 14 12 9 8 5 1 4 6 10 13 15 16 18 17 17 18 21 25 28 28 24 20 17 16 21 23 12 11 11 18 12 18 17 19 23 25 27 29 32 34
24 21 19 18 14 10 5 2 4 6 8 11 13 14 15 16 18 20 23 27 27 25 20 19 18 17 18 14 15 11 15 15 16 19 17 21 20 21 22 20 24 26 28
24 20 17 12 8 5 4 4 5 6 7 8 9 11 15 19 21 25 27 27 24 21 18 17 15 15 18 20 20 16 12 12 13 14 23 21 21 18 18 21 19 21 23
20 17 14 10 9 6 4 4 6 7 9 12 15 18 20 23 26 27 28 25 24 23 21 19 18 21 20 21 16 10 10 12 14 13 16 21 24 22 22 21 21 20 22
Wind_Direction
164 159 161 164 157 155 156 156 153 146 141 138 132 124 121 120 116 106 104 97 74 73 69 67 63 60 54 53 46 28 2 338 321 308 292 277 313 334 347 360 0 2 0
157 161 162 163 160 163 163 161 158 152 148 135 126 123 121 116 115 108 92 81 85 84 79 67 57 50 41 34 27 16 7 356 347 330 318 293 267 316 335 355 358 350 351
162 159 160 166 166 164 164 165 160 154 142 132 125 120 116 111 97 91 89 90 87 82 75 62 51 40 30 24 16 9 360 353 351 343 331 315 288 289 317 327 334 351 350
164 161 162 168 167 166 170 166 157 145 136 126 121 113 110 101 96 95 97 95 89 78 64 50 40 29 22 15 7 3 357 356 352 350 340 323 315 293 305 315 331 336 335
169 164 164 170 170 172 170 161 148 145 135 132 118 118 119 105 104 105 101 94 83 66 49 40 32 26 21 15 10 7 0 354 352 355 351 334 325 307 311 319 321 326 319
168 164 165 173 173 170 163 155 155 143 142 131 129 129 118 114 113 108 101 90 72 62 59 57 54 48 43 34 27 21 13 5 0 354 351 347 334 308 314 323 334 348 328
169 162 169 174 169 163 157 161 154 149 144 139 131 131 123 121 119 112 108 92 86 76 66 60 56 52 43 33 27 26 25 19 15 11 1 353 349 329 323 323 336 357 12
163 164 165 168 166 161 163 164 157 153 148 139 141 137 130 128 124 120 109 102 93 84 74 70 66 60 50 36 27 21 16 15 19 16 5 354 336 332 329 320 320 336 333
160 161 161 164 167 168 169 163 160 159 154 149 146 145 140 137 130 121 118 110 105 100 84 73 68 61 53 41 28 16 8 4 3 6 12 10 355 341 330 315 309 316 324
161 165 165 168 173 168 169 169 165 162 155 153 150 149 142 136 132 125 120 112 108 98 81 68 59 47 35 23 13 3 359 358 357 352 357 9 16 12 348 338 322 313 319
162 165 168 174 175 172 170 171 162 158 152 158 153 154 145 135 130 127 124 118 103 76 48 38 31 24 18 11 1 352 347 348 346 342 340 348 1 6 9 5 360 347 328
167 165 174 180 177 172 176 166 163 154 152 157 156 149 137 135 130 129 121 98 72 38 28 22 12 4 359 352 344 339 337 334 332 330 319 317 320 334 339 343 342 341 339
166 157 157 158 157 159 161 157 144 138 136 149 161 147 143 139 155 142 114 25 23 22 4 359 348 343 336 331 330 328 328 330 332 327 322 314 307 298 298 308 316 319 320
151 147 144 131 130 137 136 128 128 124 126 114 145 184 188 182 193 213 270 302 321 332 325 321 315 314 319 321 323 318 319 323 321 320 319 315 307 303 287 288 296 298 299
155 149 145 145 138 133 133 141 140 173 208 191 205 239 258 258 248 252 272 290 299 300 302 302 303 312 318 318 312 310 314 309 304 304 308 307 305 300 295 291 286 287 293
165 164 159 151 148 141 144 157 345 340 275 270 279 280 276 273 268 268 275 285 290 294 292 302 310 318 319 315 307 302 297 291 296 298 300 302 301 301 301 298 294 288 280
181 179 171 167 161 155 130 65 94 332 315 286 262 268 284 275 278 286 289 289 288 296 314 321 323 320 316 309 303 304 302 303 307 306 306 303 302 305 305 300 295 290 283
199 191 188 181 182 172 149 332 282 311 285 302 295 293 314 331 313 291 293 304 310 314 319 323 321 316 312 309 304 303 305 306 308 310 310 309 309 311 309 303 297 289 286
217 207 197 193 188 190 308 284 262 286 342 42 18 4 314 309 306 313 314 311 316 317 317 315 310 308 307 306 305 305 304 304 304 303 303 304 304 303 298 290 286 286 284
205 208 210 209 250 274 269 257 239 110 12 319 311 299 308 308 311 316 313 307 305 301 303 305 307 310 311 311 310 309 308 303 303 294 290 294 293 289 283 283 281 279 279
176 189 221 236 236 143 120 96 144 230 269 284 285 303 310 308 306 309 298 291 289 292 298 306 313 311 309 311 319 313 311 307 287 280 284 286 287 289 288 287 285 285 287
124 136 154 139 124 109 101 157 231 237 248 301 297 291 292 294 297 294 289 293 303 314 315 314 314 313 316 322 328 322 314 298 281 277 274 293 291 292 295 293 292 292 294
134 134 128 120 121 140 142 154 256 320 297 297 294 295 298 298 301 302 303 311 317 317 314 315 317 321 330 329 328 328 312 295 303 292 299 302 306 307 306 306 305 305 306
128 131 133 136 150 165 176 241 296 306 301 294 295 302 305 302 303 306 307 315 317 312 309 307 310 316 325 330 328 319 310 297 301 300 295 299 307 311 311 314 315 313 312
141 147 150 152 163 180 210 245 282 293 294 300 315 319 304 303 303 307 309 311 311 303 296 298 308 327 328 323 319 317 311 304 298 295 303 307 305 311 313 314 316 319 316
151 162 161 169 190 208 246 279 316 325 317 317 316 312 309 305 305 307 306 308 303 296 289 290 296 308 309 316 322 322 311 308 305 302 307 310 310 317 314 315 314 318 316
Height
1558 1561 1563 1567 1568 1570 1572 1575 1576 1576 1577 1578 1579 1580 1582 1583 1583 1583 1584 1584 1583 1581 1579 1580 1578 1575 1574 1573 1570 1570 1570 1569 1569 1570 1570 1571 1571 1572 1570 1569 1569 1566 1565
1558 1562 1565 1568 1569 1571 1574 1575 1576 1578 1579 1579 1581 1581 1582 1583 1585 1585 1584 1584 1583 1581 1580 1580 1579 1577 1576 1574 1572 1571 1570 1570 1569 1568 1568 1569 1570 1572 1570 1569 1568 1567 1565
1560 1562 1567 1569 1571 1572 1575 1576 1577 1579 1580 1581 1582 1582 1583 1584 1584 1583 1583 1584 1583 1582 1581 1580 1578 1577 1576 1575 1574 1572 1571 1570 1569 1568 1568 1568 1569 1570 1569 1569 1567 1566 1564
1559 1562 1566 1570 1572 1573 1575 1576 1578 1579 1580 1581 1582 1583 1584 1584 1584 1583 1584 1584 1584 1582 1582 1580 1578 1577 1576 1575 1575 1574 1572 1571 1570 1568 1568 1569 1568 1569 1568 1568 1567 1565 1564
1558 1562 1566 1569 1572 1574 1576 1577 1578 1580 1580 1581 1582 1583 1584 1584 1583 1583 1584 1585 1583 1583 1582 1581 1580 1579 1578 1577 1576 1575 1573 1572 1570 1569 1568 1568 1568 1568 1567 1566 1565 1563 1562
1559 1563 1566 1571 1573 1575 1576 1578 1579 1580 1582 1583 1583 1584 1585 1584 1584 1585 1586 1587 1585 1585 1583 1581 1579 1579 1579 1577 1575 1575 1574 1572 1570 1569 1568 1567 1567 1567 1566 1565 1564 1563 1562
1562 1564 1569 1573 1574 1576 1576 1579 1580 1582 1582 1583 1584 1585 1585 1584 1585 1585 1586 1586 1585 1584 1584 1582 1581 1579 1579 1578 1576 1575 1574 1573 1571 1569 1568 1567 1567 1566 1565 1564 1563 1562 1562
1560 1565 1568 1573 1576 1576 1577 1580 1581 1582 1582 1583 1584 1585 1584 1585 1585 1586 1587 1586 1588 1585 1586 1582 1581 1579 1578 1580 1578 1577 1575 1574 1571 1569 1568 1567 1566 1564 1564 1563 1562 1562 1562
1562 1566 1569 1573 1575 1577 1578 1579 1581 1582 1582 1583 1584 1585 1584 1585 1585 1587 1588 1587 1587 1586 1586 1584 1583 1581 1579 1581 1579 1578 1576 1574 1571 1569 1568 1566 1565 1564 1562 1562 1561 1561 1560
1563 1567 1571 1574 1576 1577 1579 1580 1582 1583 1583 1584 1585 1586 1585 1586 1586 1586 1588 1589 1587 1586 1586 1585 1583 1582 1580 1579 1578 1577 1574 1574 1572 1570 1568 1566 1565 1563 1562 1560 1560 1560 1559
1564 1568 1571 1574 1576 1577 1579 1581 1583 1584 1584 1587 1586 1587 1587 1588 1587 1587 1589 1587 1587 1587 1586 1584 1583 1582 1579 1578 1577 1576 1574 1572 1570 1569 1567 1566 1564 1562 1562 1560 1558 1558 1558
1565 1568 1572 1575 1577 1579 1582 1582 1584 1584 1586 1587 1588 1587 1589 1589 1588 1588 1588 1587 1586 1587 1585 1584 1583 1582 1579 1577 1576 1574 1572 1570 1568 1566 1565 1564 1563 1561 1560 1558 1557 1556 1555
1566 1571 1574 1577 1578 1580 1583 1585 1586 1587 1589 1590 1590 1590 1590 1589 1589 1587 1588 1588 1586 1585 1584 1583 1582 1580 1578 1576 1574 1572 1569 1566 1564 1563 1563 1561 1560 1559 1558 1556 1554 1553 1552
1569 1573 1576 1578 1580 1583 1585 1586 1588 1589 1590 1592 1591 1591 1591 1590 1589 1588 1587 1586 1585 1584 1583 1582 1581 1578 1577 1574 1572 1569 1566 1564 1562 1561 1560 1558 1556 1555 1554 1553 1551 1550 1549
1570 1575 1577 1578 1581 1582 1584 1586 1588 1589 1591 1590 1590 1591 1592 1591 1589 1587 1585 1584 1583 1583 1582 1580 1579 1577 1574 1571 1569 1566 1563 1561 1560 1558 1557 1555 1553 1552 1550 1548 1547 1546 1545
1573 1575 1576 1578 1581 1583 1584 1585 1587 1590 1588 1589 1590 1588 1588 1589 1587 1584 1584 1583 1582 1581 1580 1578 1576 1573 1570 1568 1565 1563 1560 1557 1556 1555 1554 1551 1549 1548 1546 1544 1542 1540 1540
1573 1574 1576 1578 1581 1583 1584 1585 1585 1585 1584 1584 1582 1585 1585 1587 1586 1584 1583 1582 1580 1579 1576 1573 1571 1569 1566 1564 1562 1560 1558 1554 1552 1550 1549 1548 1545 1542 1541 1540 1538 1536 1534
1572 1573 1576 1578 1580 1582 1584 1584 1585 1582 1580 1581 1581 1582 1582 1584 1583 1582 1580 1578 1577 1575 1572 1569 1567 1565 1561 1560 1558 1556 1554 1550 1547 1545 1543 1541 1539 1538 1536 1534 1533 1531 1529
1569 1572 1574 1577 1580 1583 1585 1581 1580 1579 1580 1582 1581 1581 1581 1581 1581 1579 1577 1574 1572 1570 1567 1564 1562 1559 1555 1554 1553 1551 1549 1547 1545 1542 1539 1536 1534 1532 1530 1528 1527 1525 1524
1566 1569 1574 1578 1580 1580 1579 1580 1581 1580 1581 1580 1580 1579 1579 1579 1577 1575 1572 1570 1568 1565 1562 1560 1558 1554 1551 1549 1547 1545 1543 1541 1538 1537 1535 1531 1528 1526 1524 1522 1521 1519 1517
1566 1570 1574 1577 1579 1579 1579 1579 1579 1580 1580 1580 1579 1579 1577 1576 1573 1571 1569 1567 1564 1561 1559 1557 1554 1551 1547 1544 1540 1538 1536 1534 1533 1530 1528 1526 1522 1520 1518 1517 1514 1512 1510
1567 1569 1572 1575 1576 1576 1577 1579 1579 1579 1579 1578 1577 1576 1574 1572 1570 1568 1566 1563 1561 1558 1556 1553 1550 1546 1542 1538 1537 1534 1531 1531 1529 1526 1523 1521 1517 1515 1513 1510 1507 1505 1504
1567 1570 1572 1574 1576 1578 1578 1579 1578 1577 1576 1576 1574 1573 1571 1569 1567 1564 1562 1561 1558 1555 1551 1547 1544 1541 1539 1535 1533 1534 1530 1526 1524 1522 1519 1517 1513 1511 1507 1503 1501 1498 1495
1568 1570 1572 1573 1576 1577 1577 1577 1576 1576 1575 1573 1572 1571 1569 1566 1564 1562 1559 1556 1552 1549 1545 1542 1540 1538 1535 1534 1532 1531 1529 1527 1523 1516 1516 1513 1509 1506 1502 1499 1495 1492 1489
1566 1570 1571 1572 1575 1575 1575 1575 1574 1573 1572 1571 1570 1568 1566 1563 1560 1556 1553 1550 1547 1544 1541 1537 1535 1534 1532 1532 1529 1526 1525 1523 1521 1518 1509 1508 1505 1502 1499 1496 1492 1488 1485
1566 1568 1568 1570 1572 1572 1572 1572 1571 1571 1571 1569 1567 1565 1562 1559 1555 1551 1547 1544 1541 1539 1537 1534 1532 1530 1528 1526 1526 1522 1522 1520 1517 1514 1510 1505 1500 1498 1495 1492 1488 1485 1481